Universal City, TX

12:51 AM CST on February 08, 2016 (GMT -0600)
Randolph Air Force Base

Weather History for KRND - December, 2012

Change the Weather History Date:

Thursday, December 6, 2012

  Actual Average Record
Temperature  
Mean Temperature 57 °F -  
Max Temperature 72 °F 63 °F 80 °F (1996)
Min Temperature 42 °F 44 °F 23 °F (2005)
Degree Days  
Heating Degree Days 8    
Growing Degree Days 7 (Base 50)    
Moisture  
Dew Point 53 °F    
Average Humidity 92    
Maximum Humidity 100    
Minimum Humidity 47    
Precipitation  
Precipitation 0.00 in - - ()
Sea Level Pressure  
Sea Level Pressure 29.97 in    
Wind  
Wind Speed 4 mph (SSW)    
Max Wind Speed 10 mph    
Max Gust Speed -    
Visibility 6 miles    
Events Fog    
Averages and records for this station are not official NWS values.
T = Trace of Precipitation, MM = Missing Value Source: NWS Daily Summary

Daily Weather History Graph

Daily Weather History Graph

Search for Another Location

Airport or City:

Trip Planner

Search our weather history database for the weather conditions in past years. The results will help you decide how hot, cold, wet, or windy it might be!

Date:

Astronomy

Dec. 06, 2012 Rise Set
Actual Time 7:14 AM CST 5:34 PM CST
Civil Twilight 6:48 AM CST 6:00 PM CST
Nautical Twilight 6:19 AM CST 6:29 PM CST
Astronomical Twilight 5:50 AM CST 6:58 PM CST
Moon 12:02 AM CST (12/6) 12:33 PM CST (12/6)
Length of Visible Light 11h 11m
Length of Day
10h 19m
Waning Gibbous, 49% of the Moon is Illuminated
Dec 6
Waning Gibbous
Dec 13
New
Dec 19
First Quarter
Dec 28
Full
Jan 4
Last Quarter

Hourly Weather History & Observations

Time (CST) Temp. Windchill Dew Point Humidity Pressure Visibility Wind Dir Wind Speed Gust Speed Precip Events Conditions
12:55 AM 45.0 °F 43.5 °F 40.5 °F 84% 30.04 in 10.0 mi NNW 3.5 mph - N/A   Clear
1:55 AM 43.7 °F 41.1 °F 39.4 °F 85% 30.02 in 9.0 mi NW 4.6 mph - N/A   Clear
2:55 AM 42.4 °F 38.8 °F 40.8 °F 94% 30.01 in 10.0 mi NNW 5.8 mph - N/A   Clear
3:55 AM 44.2 °F 42.7 °F 42.4 °F 93% 29.99 in 8.0 mi NW 3.5 mph - N/A   Mostly Cloudy
4:53 AM 46.4 °F 45.2 °F 44.6 °F 93% 29.98 in 10.0 mi NW 3.5 mph - N/A   Scattered Clouds
4:55 AM 45.7 °F 44.4 °F 44.4 °F 95% 29.98 in 10.0 mi NW 3.5 mph - N/A   Scattered Clouds
5:18 AM 46.4 °F - 44.6 °F 93% 29.99 in 9.0 mi Calm Calm - N/A   Scattered Clouds
5:30 AM 46.4 °F - 44.6 °F 93% 29.99 in 10.0 mi Calm Calm - N/A   Mostly Cloudy
5:34 AM 46.4 °F - 44.6 °F 93% 29.99 in 10.0 mi Calm Calm - N/A   Mostly Cloudy
5:55 AM 48.4 °F - 47.3 °F 96% 29.98 in 10.0 mi West 3.5 mph - N/A   Mostly Cloudy
5:58 AM 48.2 °F - 48.2 °F 100% 29.98 in 10.0 mi West 3.5 mph - N/A   Mostly Cloudy
6:02 AM 48.2 °F - 48.2 °F 100% 29.98 in 10.0 mi West 3.5 mph - N/A   Mostly Cloudy
6:23 AM 50.0 °F - 50.0 °F 100% 29.99 in 8.0 mi WSW 3.5 mph - N/A   Mostly Cloudy
6:25 AM 50.0 °F - 50.0 °F 100% 29.99 in 8.0 mi SW 3.5 mph - N/A   Mostly Cloudy
6:26 AM 50.0 °F - 50.0 °F 100% 29.99 in 8.0 mi SW 3.5 mph - N/A   Mostly Cloudy
6:34 AM 53.6 °F - 53.6 °F 100% 29.99 in 2.0 mi SW 4.6 mph - N/A   Overcast
6:55 AM 55.4 °F - 55.0 °F 99% 30.00 in 1.5 mi Calm Calm - N/A   Overcast
7:10 AM 53.6 °F - 53.6 °F 100% 30.00 in 1.0 mi Calm Calm - N/A   Overcast
7:23 AM 55.4 °F - 55.4 °F 100% 30.00 in 0.5 mi SSW 4.6 mph - N/A Fog Fog
7:28 AM 55.4 °F - 55.4 °F 100% 30.00 in 0.2 mi SSW 4.6 mph - N/A Fog Fog
7:36 AM 57.2 °F - 57.2 °F 100% 30.00 in 0.2 mi SSW 4.6 mph - N/A Fog Fog
7:41 AM 57.2 °F - 57.2 °F 100% 30.00 in 0.2 mi SSW 3.5 mph - N/A Fog Fog
7:50 AM 57.2 °F - 57.2 °F 100% 30.01 in 0.1 mi South 3.5 mph - N/A Fog Fog
7:55 AM 56.3 °F - 56.3 °F 100% 30.00 in 0.1 mi South 3.5 mph - N/A Fog Fog
8:05 AM 57.2 °F - 57.2 °F 100% 30.01 in 0.2 mi SW 4.6 mph - N/A Fog Fog
8:25 AM 57.2 °F - 57.2 °F 100% 30.00 in 0.4 mi SSW 4.6 mph - N/A Fog Fog
8:29 AM 57.2 °F - 57.2 °F 100% 30.00 in 0.2 mi South 4.6 mph - N/A Fog Fog
8:39 AM 57.2 °F - 57.2 °F 100% 30.00 in 0.2 mi SSW 4.6 mph - N/A Fog Fog
8:55 AM 56.5 °F - 56.5 °F 100% 30.01 in 0.2 mi South 3.5 mph - N/A Fog Fog
9:15 AM 57.2 °F - 57.2 °F 100% 30.01 in 0.2 mi South 4.6 mph - N/A Fog Fog
9:33 AM 57.2 °F - 57.2 °F 100% 30.02 in 0.2 mi SSE 5.8 mph - N/A Fog Fog
9:55 AM 57.0 °F - 57.0 °F 100% 30.01 in 0.2 mi SSE 5.8 mph - N/A Fog Fog
10:03 AM 57.2 °F - 57.2 °F 100% 30.01 in 0.5 mi South 5.8 mph - N/A Fog Fog
10:07 AM 57.2 °F - 57.2 °F 100% 30.01 in 1.0 mi South 5.8 mph - N/A   Mist
10:12 AM 57.2 °F - 57.2 °F 100% 30.02 in 1.5 mi South 5.8 mph - N/A   Overcast
10:13 AM 57.2 °F - 57.2 °F 100% 30.01 in 1.8 mi South 5.8 mph - N/A   Overcast
10:14 AM 57.2 °F - 57.2 °F 100% 30.01 in 2.0 mi SSE 5.8 mph - N/A   Overcast
10:24 AM 57.2 °F - 57.2 °F 100% 30.02 in 2.5 mi Variable 5.8 mph - N/A   Overcast
10:31 AM 57.2 °F - 57.2 °F 100% 30.01 in 3.0 mi South 4.6 mph - N/A   Overcast
10:33 AM 57.2 °F - 57.2 °F 100% 30.01 in 3.0 mi SSW 5.8 mph - N/A   Overcast
10:42 AM 59.0 °F - 59.0 °F 100% 30.01 in 4.0 mi SW 5.8 mph - N/A   Overcast
10:50 AM 59.0 °F - 59.0 °F 100% 30.00 in 7.0 mi South 5.8 mph - N/A   Mostly Cloudy
10:55 AM 58.8 °F - 58.6 °F 99% 30.00 in 8.0 mi SSW 5.8 mph - N/A   Mostly Cloudy
11:10 AM 60.8 °F - 59.0 °F 94% 29.99 in 10.0 mi South 9.2 mph - N/A   Mostly Cloudy
11:20 AM 62.6 °F - 59.0 °F 88% 29.99 in 10.0 mi South 9.2 mph - N/A   Scattered Clouds
11:55 AM 64.2 °F - 57.6 °F 79% 29.96 in 10.0 mi South 6.9 mph - N/A   Scattered Clouds
12:55 PM 67.5 °F - 55.6 °F 66% 29.92 in 10.0 mi South 5.8 mph - N/A   Clear
1:55 PM 70.2 °F - 54.3 °F 57% 29.89 in 10.0 mi SSW 9.2 mph - N/A   Clear
2:55 PM 71.6 °F - 53.8 °F 53% 29.87 in 10.0 mi South 5.8 mph - N/A   Clear
3:55 PM 72.5 °F - 51.1 °F 47% 29.85 in 10.0 mi South 10.4 mph - N/A   Clear
4:55 PM 70.5 °F - 52.3 °F 52% 29.84 in 10.0 mi SSE 8.1 mph - N/A   Clear
5:55 PM 65.3 °F - 52.0 °F 62% 29.84 in 10.0 mi SSE 4.6 mph - N/A   Clear
6:55 PM 61.5 °F - 52.2 °F 71% 29.86 in 10.0 mi Calm Calm - N/A   Clear
7:55 PM 57.6 °F - 52.0 °F 82% 29.86 in 10.0 mi Calm Calm - N/A   Clear
8:55 PM 56.3 °F - 52.2 °F 86% 29.87 in 10.0 mi Calm Calm - N/A   Clear
9:55 PM 57.2 °F - 53.4 °F 87% 29.87 in 10.0 mi South 4.6 mph - N/A   Clear
10:55 PM 54.0 °F - 52.0 °F 93% 29.88 in 10.0 mi Calm Calm - N/A   Clear
11:50 PM 51.8 °F - 51.8 °F 100% 29.88 in 10.0 mi Calm Calm - N/A   Partly Cloudy
11:55 PM 51.1 °F - 50.9 °F 99% 29.88 in 10.0 mi Calm Calm - N/A   Scattered Clouds